Regional Weather Roundup
Issued by NWS Green Bay, WI

Home | Current Version | Previous Version | Graphics & Text | Print | Product List | Glossary Off
Versions: 1 2 3 4 5 6 7 8 9 10 11 12 13 14 15 16 17 18 19 20 21 22 23 24 25 26 27 28 29 30 31 32 33 34 35 36 37 38 39 40 41 42 43 44 45 46 47 48 49 50

048
ASUS43 KGRB 140011
RWRGRB

NORTH-CENTRAL AND NORTHEAST WISCONSIN REGIONAL WEATHER ROUNDUP
NATIONAL WEATHER SERVICE GREEN BAY WI
600 PM CST SAT FEB 13 2016

WIZ005-009-010>012-018-019-140100-
NORTH CENTRAL WISCONSIN

CITY           SKY/WX    TMP DP  RH WIND       PRES   REMARKS
IRONWOOD       CLOUDY     0  -8  71 CALM      30.37F
MANITOWISH WTR CLOUDY    -2 -11  65 CALM      30.35S
ARBOR VITAE    CLEAR      3  -9  57 CALM      30.36S
EAGLE RIVER    CLEAR      2  -8  60 CALM      30.35F
LAND O LAKES   CLEAR     -2  -8  76 CALM      30.36S
RHINELANDER    CLEAR      6 -11  45 CALM      30.37S
PHILLIPS       CLOUDY     2 -13  49 SW5       30.37S WCI  -7
ANTIGO         CLEAR      2 -10  58 SW7       30.38S WCI -11
TOMAHAWK       CLEAR      2 -12  52 CALM      30.38F
MERRILL        CLOUDY     3  -9  55 SW3       30.41S
$$

WIZ013-073-140100-
NORTHEAST WISCONSIN

CITY           SKY/WX    TMP DP  RH WIND       PRES   REMARKS
IRON MOUNTAIN  CLEAR      5  -8  55 N3        30.39S
MARINETTE      CLEAR      9  -4  56 SW6       30.46R WCI  -1
OCONTO         CLEAR      9  -6  52 SW5       30.47S WCI   0
$$

WIZ017-030-035>037-045-140100-
CENTRAL WISCONSIN

CITY           SKY/WX    TMP DP  RH WIND       PRES   REMARKS
MEDFORD        CLOUDY     0 -11  59 S3        30.38F
WAUSAU         CLOUDY     5 -10  50 SW5       30.41F WCI  -4
MOSINEE        CLEAR      1  -9  60 SW6       30.43F WCI -10
MARSHFIELD     CLOUDY     5 -12  45 CALM      30.41F
WISC RAPIDS    CLOUDY     5 -11  47 NE5       30.46F WCI  -4
STEVENS POINT  CLOUDY     3 -11  51 CALM      30.45F
WAUPACA        CLEAR      8 -10  43 W5        30.48S WCI   0
SHAWANO        CLEAR     12  -7  43 CALM      30.46S
CLINTONVILLE   CLEAR     10  -9  40 W5        30.46S WCI   2
WAUTOMA        CLOUDY     4 -11  50 CALM      30.48F
$$

WIZ038-039-048-051-140100-
FOX VALLEY

CITY           SKY/WX    TMP DP  RH WIND       PRES   REMARKS
NWS GREEN BAY  CLEAR      8  -6  52 S5        30.48S WCI   0
APPLETON       PTCLDY     9  -9  43 SW5       30.45S WCI   0
OSHKOSH        CLEAR      6  -8  52 S5        30.48S WCI  -3
FOND DU LAC    CLEAR      5  -7  57 S3        30.49S
$$

WIZ022-050-052-140100-
EAST CENTRAL WISCONSIN

CITY           SKY/WX    TMP DP  RH WIND       PRES   REMARKS
EPHRAIM        FAIR       7  -4  60 SW3       30.44S
STURGEON BAY   CLEAR      7  -8  51 S6        30.48F WCI  -3
MANITOWOC      CLEAR      6  -6  57 W5        30.50F WCI  -3
SHEBOYGAN      CLEAR      6  -7  54 W3        30.49F
$$

LMZ563-521-522-541>543-140100-
LAKESHORE

STATION/POSITION TIME  TEMP    WIND        PRES    VSBY  WAVE
                       AIR SEA DIR/SP/G                  HT/PER
                 (UTC) (F)     (DEG/KT/KT) (MB)    (MI)  (FT/S)
SHEBOYGAN LKSHOR 0000    9     270/  6/  7 1034.9F
KEWAUNEE LKSHORE 2300    9                 1031.7R
ALGOMA MARINA    2311             CALM       N/A
SISTER BAY LKSHO 2320   10      10/  5/  7   N/A
CHAMBERS ISLAND  2300   10     180/  6/ 11 1031.5S
MENOMINEE LKSHOR 2300   10                 1030.2F
$$




USA.gov is the U.S. government's official web portal to all federal, state and local government web resources and services.